Location: Bakov nad Jizerou
(50.4784°N, 14.9394°E)
Time: 08:10:37
(UTC+00:00)

Cosmos 2219 Rocket - Pass Details

Date: 16 June 2021
Orbit: 829 x 845 km, 71.0° (Epoch: 04 August)

Event Time Altitude Azimuth Distance (km) Brightness Sun altitude
Exits shadow 21:24:48 12° 192° (SSW) 2,320 4.0 -13.1°
Maximum altitude 21:29:59 63° 114° (ESE) 943 2.2 -13.4°
Drops below altitude 10° 21:35:36 10° 34° (NE) 2,475 5.1 -13.8°
Sets 21:38:04 0° 32° (NNE) 3,412 5.9 -13.9°
